Regional Weather Roundup
Issued by NWS

Home | Current Version | Previous Version | Text Only | Print | Product List | Glossary Off
Versions: 1 2 3 4 5 6 7 8 9 10 11 12 13 14 15 16 17 18 19 20 21 22 23 24 25 26 27 28 29 30 31 32 33 34 35 36 37 38 39 40 41 42 43 44 45 46 47 48 49 50

000
ASUS43 KDTX 292201
RWRMI
MICHIGAN HOURLY REGIONAL WEATHER ROUNDUP
NATIONAL WEATHER SERVICE DETROIT/PONTIAC MI
600 PM EDT MON JUN 29 2015

NOTE: "FAIR" INDICATES FEW OR NO CLOUDS BELOW 12,000 FEET WITH NO
SIGNIFICANT WEATHER AND/OR OBSTRUCTION TO VISIBILITY.

MIZ047>049-052>055-059>063-066>070-074>076-081>083-292300-
SOUTHEAST LOWER MICHIGAN

CITY           SKY/WX    TMP DP  RH WIND       PRES   REMARKS
ADRIAN         CLOUDY    66  58  75 S7        29.85F
ALMA           PTSUNNY   73  60  65 S3        29.83S
ANN ARBOR      MOSUNNY   70  54  56 S9        29.85S
BAD AXE        MOSUNNY   78  50  37 S13       29.82F
CARO           MOSUNNY   74  61  63 S8        29.83S
DETROIT CITY   PTSUNNY   72  54  53 SE9       29.86F
DETROIT        PTSUNNY   73  56  54 SE12      29.86F
FLINT          PTSUNNY   75  58  55 S16       29.84F
GROSSE ILE       N/A     70  61  73 SE5       29.85F
HILLSDALE      CLOUDY    66  59  79 SE9       29.85F
HOWELL         CLOUDY    71  57  61 S10       29.85S

CITY           SKY/WX    TMP DP  RH WIND       PRES   REMARKS
JACKSON        PTSUNNY   68  58  70 S10       29.85S
LAMBERTVILLE   CLOUDY    69  58  68 SE6       29.85F
LANSING        MOSUNNY   73  56  54 SE13      29.84S
LAPEER         FAIR      70  58  67 S7        29.85F
MASON          PTSUNNY   69  57  64 SE10      29.84F
MONROE         CLOUDY    69  58  68 SE7       29.84F
MT. CLEMENS    PTSUNNY   71  57  61 S12       29.84F
PONTIAC        PTSUNNY   71  54  54 S12       29.85F
PORT HOPE        N/A     74  54  49 SE14      29.81F
PORT HURON     MOSUNNY   72  57  60 S10       29.86S
TRI CITIES     CLOUDY    74  59  59 S10       29.83F
MIDLAND        FAIR      75  56  51 S13G21    29.82R
TROY           PTSUNNY   74  51  44 S9G16     29.87F
SAGINAW HB     MOSUNNY   73  54  49 S12       29.83S
$$
MIZ043>046-050>051-056>058-064>065-071>073-077>080-292300-
SOUTHWEST LOWER MICHIGAN

CITY           SKY/WX    TMP DP  RH WIND       PRES   REMARKS
BATTLE CREEK   MOSUNNY   72  58  61 S15       29.84S
BENTON HARBOR  MOSUNNY   71  62  73 SE8       29.81S
BIG RAPIDS     PTSUNNY   74  53  48 SW9       29.82R
COLDWATER      LGT RAIN  64  56  76 SE6       29.84F
FREMONT        PTSUNNY   73  56  56 S9G16     29.81R
HOLLAND        PTSUNNY   72  62  71 S9        29.81F
GRAND RAPIDS   PTSUNNY   73  59  61 S6        29.82S
IONIA          FAIR      74  56  52 SE13      29.82F
KALAMAZOO      PTSUNNY   68  57  68 S9        29.83S
LUDINGTON      MOSUNNY   76  64  66 W8        29.80S
MARSHALL       PTSUNNY   69  58  68 SE9       29.84S
MOUNT PLEASANT MOSUNNY   75  57  54 S12       29.81S
MUSKEGON       PTSUNNY   69  60  73 S5        29.82S
SOUTH HAVEN    LGT RAIN  67  63  86 E5        29.81S
$$
MIZ016>042-292300-
NORTHERN LOWER MICHIGAN

CITY           SKY/WX    TMP DP  RH WIND       PRES   REMARKS
ALPENA         SUNNY     79  55  43 SE9       29.77F
BEAVER ISLAND  SUNNY     75  49  39 W8        29.78S
BELLAIRE       SUNNY     79  48  33 NW8       29.76R
CADILLAC       MOSUNNY   74  58  56 SW13G18   29.81R
CHARLEVOIX     SUNNY     76  49  38 W7        29.80S
FRANKFORT      SUNNY     72  55  55 W9        29.80R
GAYLORD        SUNNY     80  50  34 S12       29.78F
GRAYLING       PTSUNNY   75  52  44 S3        29.80S
HARBOR SPRINGS SUNNY     78  51  39 SW6       29.76S
HOUGHTON LAKE  MOSUNNY   76  52  43 S10       29.80S
MANISTEE       MOSUNNY   70  57  64 E6        29.81S
OSCODA         SUNNY     76  50  39 SE10      29.81S
PELLSTON       SUNNY     81  49  32 W10       29.77S
ROGERS CITY    MOSUNNY   82  51  34 SW8       29.76F
TRAVERSE CITY  PTSUNNY   78  55  44 N6        29.75R
$$
MIZ007>008-015-292300-
EASTERN UPPER MICHIGAN

CITY           SKY/WX    TMP DP  RH WIND       PRES   REMARKS
KINROSS        SUNNY     79  36  21 SW10G17   29.77R
MACKINAC ISLAN SUNNY     75  44  32 W10       29.78R
NEWBERRY       MOSUNNY   71  56  60 SW9       29.77R
S. S. MARIE    SUNNY     79  47  32 SW14      29.75S
MUNISING         N/A     65  57  75 NE6       29.76R
$$
MIZ004>006-011>014-085-292300-
CENTRAL UPPER MICHIGAN

CITY           SKY/WX    TMP DP  RH WIND       PRES   REMARKS
MANISTIQUE     MOSUNNY   70  51  50 SW8       29.77F
ESCANABA       MOSUNNY   73  55  53 S9G17     29.74F
MENOMINEE      PTSUNNY   73  57  56 S5        29.74F
SAWYER-GWINN   PTSUNNY   64  61  88 SE7       29.77S
$$
MIZ001>003-009>011-084-292300-
WESTERN UPPER MICHIGAN

CITY           SKY/WX    TMP DP  RH WIND       PRES   REMARKS
IRON MOUNTAIN  PTSUNNY   72  62  71 S7        29.73F
HOUGHTON       CLOUDY    65  57  75 NW13      29.74R
COPPER HARBOR    N/A     61  57  87 N6        29.74R
$$

ABBREVIATIONS USED IN REMARKS
   TC - TEMPERATURE IN CELSIUS
  WCI - WIND CHILL INDEX
   HX - HEAT INDEX
  VSB - VISIBILITY



USA.gov is the U.S. government's official web portal to all federal, state and local government web resources and services.